TimeEST,TemperatureF,Dew PointF,Humidity,Sea Level PressureIn,VisibilityMPH,Wind Direction,Wind SpeedMPH,Gust SpeedMPH,PrecipitationIn,Events,Conditions,WindDirDegrees,DateUTC
12:53 AM,57.9,51.1,78,30.39,10.0,Calm,Calm,-,N/A,,Clear,0,2012-11-12 05:53:00
1:53 AM,55.9,51.1,84,30.38,10.0,Calm,Calm,-,N/A,,Clear,0,2012-11-12 06:53:00
2:53 AM,54.0,50.0,86,30.38,10.0,Calm,Calm,-,N/A,,Clear,0,2012-11-12 07:53:00
3:53 AM,52.0,48.9,89,30.36,10.0,Calm,Calm,-,N/A,,Clear,0,2012-11-12 08:53:00
4:53 AM,48.9,46.9,93,30.37,1.2,Calm,Calm,-,N/A,,Clear,0,2012-11-12 09:53:00
4:56 AM,48.2,46.4,93,30.39,3.0,Calm,Calm,-,N/A,,Clear,0,2012-11-12 09:56:00
5:17 AM,50.0,48.2,94,30.39,2.0,Calm,Calm,-,N/A,,Clear,0,2012-11-12 10:17:00
5:29 AM,48.2,46.4,93,30.38,1.0,Calm,Calm,-,N/A,,Clear,0,2012-11-12 10:29:00
5:36 AM,50.0,46.4,87,30.38,0.2,Calm,Calm,-,N/A,Fog,Fog,0,2012-11-12 10:36:00
5:53 AM,48.0,46.0,93,30.36,1.2,Calm,Calm,-,N/A,,Clear,0,2012-11-12 10:53:00
6:11 AM,48.2,46.4,93,30.38,0.5,Calm,Calm,-,N/A,Fog,Fog,0,2012-11-12 11:11:00
6:20 AM,48.2,46.4,93,30.38,0.5,Calm,Calm,-,N/A,Fog,Fog,0,2012-11-12 11:20:00
6:26 AM,48.2,46.4,93,30.38,1.2,Calm,Calm,-,N/A,,Scattered Clouds,0,2012-11-12 11:26:00
6:34 AM,48.2,46.4,93,30.38,0.8,Calm,Calm,-,N/A,,Mist,0,2012-11-12 11:34:00
6:53 AM,48.0,46.0,93,30.36,0.2,East,3.5,-,N/A,Fog,Fog,90,2012-11-12 11:53:00
7:33 AM,50.0,48.2,94,30.37,0.2,East,3.5,-,N/A,Fog,Fog,80,2012-11-12 12:33:00
7:51 AM,51.8,50.0,94,30.37,1.2,Calm,Calm,-,N/A,,Overcast,0,2012-11-12 12:51:00
7:53 AM,52.0,50.0,93,30.36,1.8,Calm,Calm,-,N/A,,Overcast,0,2012-11-12 12:53:00
8:00 AM,51.8,50.0,94,30.37,3.0,Calm,Calm,-,N/A,,Mostly Cloudy,0,2012-11-12 13:00:00
8:11 AM,51.8,50.0,94,30.38,3.0,Calm,Calm,-,N/A,,Scattered Clouds,0,2012-11-12 13:11:00
8:53 AM,57.0,54.0,89,30.35,10.0,SSE,3.5,-,N/A,,Clear,160,2012-11-12 13:53:00
9:53 AM,62.1,55.0,78,30.35,10.0,Calm,Calm,-,N/A,,Clear,0,2012-11-12 14:53:00
10:53 AM,66.0,55.9,70,30.34,10.0,South,3.5,-,N/A,,Clear,170,2012-11-12 15:53:00
11:53 AM,69.1,55.9,63,30.30,10.0,Variable,5.8,-,N/A,,Scattered Clouds,0,2012-11-12 16:53:00
12:53 PM,64.0,57.9,80,30.30,2.5,SW,17.3,-,0.04,Rain,Rain,230,2012-11-12 17:53:00
1:04 PM,62.6,59.0,88,30.31,7.0,SW,9.2,18.4,0.00,Rain,Light Rain,220,2012-11-12 18:04:00
1:53 PM,63.0,60.1,90,30.26,10.0,South,3.5,-,0.01,,Overcast,170,2012-11-12 18:53:00
2:53 PM,64.0,60.1,87,30.23,7.0,South,10.4,21.9,0.00,Rain,Light Rain,170,2012-11-12 19:53:00
3:53 PM,64.9,59.0,81,30.22,10.0,SSW,8.1,-,0.00,,Overcast,200,2012-11-12 20:53:00
4:53 PM,64.9,57.9,78,30.21,10.0,South,3.5,-,N/A,,Overcast,170,2012-11-12 21:53:00
5:53 PM,63.0,57.9,84,30.20,10.0,SSW,3.5,-,N/A,,Overcast,200,2012-11-12 22:53:00
6:53 PM,61.0,57.9,90,30.20,10.0,Calm,Calm,-,N/A,,Clear,0,2012-11-12 23:53:00
7:53 PM,62.1,57.9,86,30.18,10.0,Calm,Calm,-,N/A,,Overcast,0,2012-11-13 00:53:00
8:53 PM,61.0,57.9,90,30.17,10.0,Calm,Calm,-,N/A,,Overcast,0,2012-11-13 01:53:00
9:53 PM,63.0,59.0,87,30.16,10.0,Variable,4.6,-,N/A,,Overcast,0,2012-11-13 02:53:00
10:53 PM,64.9,59.0,81,30.14,10.0,SSW,6.9,-,N/A,,Overcast,200,2012-11-13 03:53:00
11:53 PM,64.9,59.0,81,30.15,10.0,SSW,6.9,-,N/A,,Overcast,210,2012-11-13 04:53:00